Location: Recife
(8.0585°S, 34.8848°W)
Time: 11:19:03
(UTC-03:00)

Transit 2A - Pass Details

Date: 15 April 2026
Orbit: 594 x 950 km, 66.7° (Epoch: 14 May)

Event Time Altitude Azimuth Distance (km) Brightness Sun altitude
Rises 19:54:26 0° 190° (S) 3,402 - -39.4°
Reaches altitude 10° 19:56:55 10° 185° (S) 2,512 - -40.0°
Maximum altitude 20:02:36 50° 110° (ESE) 1,147 - -41.4°
Drops below altitude 10° 20:08:36 10° 36° (NE) 2,648 - -42.9°
Sets 20:11:15 0° 31° (NNE) 3,601 - -43.5°
